Regional Weather Roundup
Issued by NWS

Home | Current Version | Previous Version | Text Only | Print | Product List | Glossary Off
Versions: 1 2 3 4 5 6 7 8 9 10 11 12 13 14 15 16 17 18 19 20 21 22 23 24 25 26 27

000
ASUS45 KPSR 020510
RWRAZ

ARIZONA HOURLY REGIONAL WEATHER ROUNDUP
NATIONAL WEATHER SERVICE PHOENIX AZ
1000 PM MST SUN MAY 01 2016

NOTE: FAIR INDICATES FEW OR NO CLOUDS BELOW 12,000 FEET WITH NO
SIGNIFICANT WEATHER AND/OR OBSTRUCTIONS TO VISIBILITY.

AZZ001>003-036-020600-
NORTHWEST ARIZONA

CITY           SKY/WX    TMP DP  RH WIND       PRES   REMARKS
BULLHEAD CITY  CLEAR     75  39  27 E7        29.93R
KINGMAN        CLEAR     54  32  43 S6        30.03R
$$

AZZ004>008-015-016-018-020600-
NORTH CENTRAL ARIZONA

CITY           SKY/WX    TMP DP  RH WIND       PRES   REMARKS
GRAND CANYON   CLEAR     40  33  76 NE3       30.15R
WILLIAMS       CLEAR     39  37  93 SE8       30.21R WCI  34
PRESCOTT       CLEAR     45  41  86 S6        30.10R
FLAGSTAFF      CLEAR     33  32  96 CALM      30.16R
PAYSON         CLEAR     48  39  71 NE8       30.12S
PAGE           CLOUDY    52  41  66 S3        30.12R
$$

AZZ009>014-017-020600-
NORTHEAST ARIZONA

CITY           SKY/WX    TMP DP  RH WIND       PRES   REMARKS
WINSLOW        PTCLDY    47  43  86 SE3       30.14R
SAINT JOHNS    CLOUDY    44  39  82 E7        30.15R
WINDOW ROCK    PTCLDY    39  33  79 VRB5      30.20R
SHOW LOW       PTCLDY    37  36  93 CALM      30.17R
$$

AZZ023-020600-
GREATER PHOENIX AREA

CITY           SKY/WX    TMP DP  RH WIND       PRES   REMARKS
PHOENIX        CLEAR     75  38  26 CALM      29.92R
BUCKEYE        CLEAR     66  39  37 NE3       29.95R
LUKE AFB       CLEAR     68  45  43 NW6       29.93R
DEER VALLEY    CLEAR     69  37  30 NE7       29.94R
SCOTTSDALE     CLEAR     70  39  32 CALM      29.96R
MESA-GATEWAY   CLEAR     66  39  37 E3        29.95R
$$

AZZ027-028-020600-
SOUTHWEST MARICOPA COUNTY AND PINAL COUNTY

CITY           SKY/WX    TMP DP  RH WIND       PRES   REMARKS
CASA GRANDE    CLEAR     64  36  34 N5        29.97R
GILA BEND      FAIR      71  47  42 E2        29.92R
$$

AZZ503-504-507>509-020600-
SOUTHEAST ARIZONA

CITY           SKY/WX    TMP DP  RH WIND       PRES   REMARKS
TUCSON         CLEAR     67  37  33 CALM      30.00R
DAVIS-MONTHAN  CLEAR     65  37  35 N2        29.98R
NOGALES        CLEAR     54  31  41 NE3       30.03R
SIERRA VISTA   CLEAR     57  32  38 SW8       30.08R
DOUGLAS        MOCLDY    57  28  33 NW9       30.05R
SAFFORD        CLEAR     60  33  36 W9        30.00R
$$

AZZ020-021-025-026-031-020600-
SOUTHWEST ARIZONA

CITY           SKY/WX    TMP DP  RH WIND       PRES   REMARKS
YUMA           CLEAR     71  54  54 S10       29.90R
$$

CAZ031-033-041-043-047-048-061-020600-
SOUTHERN CALIFORNIA

CITY           SKY/WX    TMP DP  RH WIND       PRES   REMARKS
DOWNTOWN L.A.  PTCLDY    59  53  80 CALM      30.00R
L.A. AIRPORT   PTCLDY    58  52  80 W8        30.01R
SAN DIEGO      MOCLDY    61  51  70 NW5       30.03R
BURBANK        MOCLDY    59  51  75 S3        29.99R
ONTARIO        PTCLDY    59  51  75 W7        29.99R
RIVERSIDE      CLEAR     61  51  70 CALM      30.00R
PALM SPRINGS   CLEAR     75  50  41 NW13      29.92R
EL CENTRO NAS  CLEAR    N/A N/A N/A S6        29.90R
IMPERIAL       CLEAR     76  40  27 CALM      29.88R
BLYTHE         CLEAR     74  39  28 CALM      29.89R
NEEDLES        CLEAR     76  41  28 SE8       29.92R
$$

NVZ020-UTZ003-020600-
SOUTHERN NEVADA-UTAH

CITY           SKY/WX    TMP DP  RH WIND       PRES   REMARKS
LAS VEGAS      PTCLDY    67  43  41 W5        29.93R
SALT LAKE CITY PTCLDY    52  29  41 W6        30.10R
$$

NMZ009-TXZ055-020600-
NEW MEXICO-WEST TEXAS

CITY           SKY/WX    TMP DP  RH WIND       PRES   REMARKS
ALBUQUERQUE    CLOUDY    41  33  73 E7        30.26R
EL PASO        CLEAR     48  34  58 NE13      30.17R
$$


........................KEY........................
SKY/WX - SKY CONDITION/WEATHER
TMP    - TEMPERATURE IN FAHRENHEIT
DP     - DEW POINT IN FAHRENHEIT
RH     - RELATIVE HUMIDITY IN PERCENT
WIND   - DIRECTION AND SPEED IN MILES PER HOUR (MPH)
VRB    - VARIABLE WIND DIRECTION
PRES   - MEAN SEA LEVEL PRESSURE IN INCHES OF MERCURY
         F - FALLING PRESSURE   R - RISING PRESSURE
         S - STEADY PRESSURE
VSB    - VISIBILITY IN MILES
HX     - HEAT INDEX IN FAHRENHEIT
WCI    - WIND CHILL INDEX IN FAHRENHEIT
TC     - TEMPERATURE IN CELSIUS WHICH IS ALSO KNOWN AS
         TEMPERATURE IN CENTIGRADE
AFB    - AIR FORCE BASE
         LUKE AFB IS LUKE AIR FORCE BASE
         DAVIS-MONTHAN IS DAVIS-MONTHAN AIR FORCE BASE
NAS    - NAVAL AIR STATION
         EL CENTRO NAS IS EL CENTRO NAVAL AIR STATION
N/A    - NOT AVAILABLE





USA.gov is the U.S. government's official web portal to all federal, state and local government web resources and services.